Sisseton, SD

1:52 PM CDT on October 01, 2016 (GMT -0500)
Sisseton

Weather History for K8D3 - October, 2012

Change the Weather History Date:

Monday, October 8, 2012

  Actual Average Record
Temperature  
Mean Temperature 55 °F 50 °F  
Max Temperature 65 °F 62 °F 88 °F (1960)
Min Temperature 44 °F 38 °F 18 °F (2000)
Degree Days  
Heating Degree Days 10 15  
Month to date heating degree days 142 111  
Since 1 July heating degree days 389 356  
Cooling Degree Days 0 0  
Month to date cooling degree days 0 0  
Year to date cooling degree days 712 523  
Growing Degree Days 4 (Base 50)    
Moisture  
Dew Point 33 °F    
Average Humidity 54    
Maximum Humidity 65    
Minimum Humidity 43    
Precipitation  
Precipitation 0.00 in 0.07 in 0.43 in (1959)
Month to date precipitation 0.03 0.73  
Year to date precipitation 14.47 20.01  
Snow  
Snow 0.00 in - - ()
Month to date snowfall T  
Since 1 July snowfall T  
Snow Depth 0.00 in    
Sea Level Pressure  
Sea Level Pressure 29.66 in    
Wind  
Wind Speed 14 mph (West)    
Max Wind Speed 30 mph    
Max Gust Speed 38 mph    
T = Trace of Precipitation, MM = Missing Value Source: NWS Daily Summary

Daily Weather History Graph

Daily Weather History Graph

Search for Another Location

Airport or City:

Trip Planner

Search our weather history database for the weather conditions in past years. The results will help you decide how hot, cold, wet, or windy it might be!

Date:

Astronomy

Oct. 08, 2012 Rise Set
Actual Time 7:35 AM CDT 6:53 PM CDT
Civil Twilight 7:06 AM CDT 7:23 PM CDT
Nautical Twilight 6:31 AM CDT 7:57 PM CDT
Astronomical Twilight 5:57 AM CDT 8:32 PM CDT
Moon No Moon Rise 3:02 PM CDT (10/8)
Length of Visible Light 12h 17m
Length of Day
11h 18m
Last Quarter, 46% of the Moon is Illuminated
Oct 8
Last Quarter
Oct 15
New
Oct 21
First Quarter
Oct 29
Full
Nov 6
Last Quarter

Hourly Weather History & Observations

Time (CDT) Temp. Windchill Dew Point Humidity Pressure Visibility Wind Dir Wind Speed Gust Speed Precip Events Conditions
12:56 AM 44.1 °F 40.1 °F 27.0 °F 51% 29.77 in - WSW 6.9 mph - N/A   Unknown
1:56 AM 48.0 °F - 28.0 °F 46% 29.75 in - WSW 11.5 mph - N/A   Unknown
2:56 AM 48.9 °F - 28.0 °F 44% 29.73 in - West 11.5 mph - N/A   Unknown
3:56 AM 48.0 °F - 30.0 °F 50% 29.70 in - SW 5.8 mph - N/A   Unknown
4:56 AM 46.9 °F - 32.0 °F 56% 29.68 in - SW 5.8 mph - N/A   Unknown
5:56 AM 48.0 °F - 32.0 °F 54% 29.65 in - SW 8.1 mph - N/A   Unknown
6:56 AM 50.0 °F - 30.9 °F 48% 29.64 in - SW 11.5 mph - N/A   Unknown
7:56 AM 51.1 °F - 30.9 °F 46% 29.62 in - SW 11.5 mph - N/A   Unknown
8:56 AM 50.0 °F - 33.1 °F 52% 29.61 in - SW 12.7 mph - N/A   Unknown
9:56 AM 51.1 °F - 32.0 °F 48% 29.57 in - SW 16.1 mph 25.3 mph N/A   Unknown
10:56 AM 53.1 °F - 33.1 °F 47% 29.55 in - West 24.2 mph 32.2 mph N/A   Unknown
11:56 AM 57.0 °F - 35.1 °F 44% 29.55 in - WNW 21.9 mph 29.9 mph N/A   Unknown
12:56 PM 61.0 °F - 41.0 °F 48% 29.55 in - NW 18.4 mph 28.8 mph N/A   Unknown
1:56 PM 63.0 °F - 39.9 °F 43% 29.56 in - NNW 24.2 mph 32.2 mph N/A   Unknown
2:56 PM 60.1 °F - 39.0 °F 46% 29.59 in - NNW 25.3 mph 34.5 mph N/A   Unknown
4:56 PM 55.9 °F - 36.0 °F 47% 29.66 in - NW 21.9 mph 27.6 mph N/A   Unknown
5:56 PM 55.9 °F - 35.1 °F 45% 29.68 in - NW 17.3 mph 23.0 mph N/A   Unknown
6:56 PM 50.0 °F - 35.1 °F 57% 29.69 in - NW 6.9 mph - N/A   Unknown
7:56 PM 50.0 °F - 36.0 °F 59% 29.70 in - WNW 5.8 mph - N/A   Unknown
8:56 PM 46.0 °F 41.9 °F 34.0 °F 63% 29.72 in - WNW 8.1 mph - N/A   Unknown
9:56 PM 48.0 °F - 35.1 °F 61% 29.72 in - WNW 9.2 mph - N/A   Unknown
10:56 PM 46.9 °F - 35.1 °F 63% 29.74 in - WNW 9.2 mph - N/A   Unknown
11:56 PM 46.9 °F - 32.0 °F 56% 29.73 in - NW 10.4 mph - N/A   Unknown